DRAGON CRS-26 DEB (55241 NORAD) Tracking and Keplerian Element Data

This shows tracking and keplerian element data for the satellite.

Feedback or suggestion? Click here.




ElementValue
Catalog55241
NameDRAGON CRS-26 DEB
Epoch Orbit48
Epoch Day14.34215962
Epoch Year2023
RAAN9.1025
Inclination51.6375
Eccentricity0.0101771
Argument of Perigee169.7471
Mean Anonmoly190.5852
Mean Motion15.99770613
Decay Rate0.01218689
L11 55241U 22159B 23014.34215962 .01218689 11272-4 12676-2 0 9994
L22 55241 51.6375 9.1025 0101771 169.7471 190.5852 15.99770613 485



Live tracking and technical data element details for DRAGON CRS-26 DEB (NORAD 55241). DRAGON CRS-26 DEB can be tracked NOW for your location showing map with azimuth and elevation plus other details from your city location.







IsCatalogInMostPopularTable: catalog: 55241, numindb: 27
Update: records affected: 1



GetName: 55241 DRAGON CRS-26 DEB

Hit Count: updated at: Mon, 27 Mar 2023 08:08:26 GMT